Terminal Aerodrome Forecast
Issued by NWS Sioux Falls, SD

Home | Current Version | Previous Version | Graphics & Text | Print | Product List | Glossary On
Versions: 1 2 3 4 5 6 7 8 9 10 11 12 13 14 15 16 17 18 19 20 21 22 23 24 25 26 27 28 29 30 31 32 33 34 35 36
000
FTUS43 KFSD 240929 AAA
TAFSUX
TAF AMD
KSUX 240929Z 2409/2506 02020G28KT 2SM -SN BLSN OVC012
     FM241200 35022G34KT 1 1/2SM -SN BLSN OVC012
     FM241800 35020G32KT 3SM BLSN OVC020
     FM242100 34020G29KT P6SM SCT035
     FM250000 33013G19KT P6SM SCT150=

USA.gov is the U.S. government's official web portal to all federal, state and local government web resources and services.